Location: Fundy National Park
(45.6138°N, 65.0316°W)
Time: 23:53:14
(UTC-03:00)

ISS - Pass Details

Date: 02 August 2021
Orbit: 417 x 423 km, 51.6° (Epoch: 24 September)

Event Time Altitude Azimuth Distance (km) Brightness Sun altitude
Rises 21:11:48 0° 294° (WNW) 2,320 2.7 -4.7°
Reaches altitude 10° 21:13:57 10° 286° (WNW) 1,464 0.6 -5.0°
Maximum altitude 21:17:01 37° 218° (SW) 649 -2.7 -5.4°
Drops below altitude 10° 21:20:07 10° 149° (SSE) 1,472 -1.5 -5.9°
Enters shadow 21:20:52 - 145° (SE) 1,767 -1.2 -6.0°
